Weather History for Fairmont, MN

Change the Weather History Date:

Thursday, February 14, 2013

  Actual Average Record
Temperature  
Mean Temperature 28 °F -  
Max Temperature 39 °F 27 °F 64 °F (1954)
Min Temperature 17 °F 10 °F -17 °F (1970)
Degree Days  
Heating Degree Days 37    
Moisture  
Dew Point 21 °F    
Average Humidity 64    
Maximum Humidity 75    
Minimum Humidity 51    
Precipitation  
Precipitation 0.00 in - - ()
Sea Level Pressure  
Sea Level Pressure 29.93 in    
Wind  
Wind Speed 19 mph (NW)    
Max Wind Speed 28 mph    
Max Gust Speed 32 mph    
Visibility 8 miles    
Events      
Averages and records for this station are not official NWS values.
T = Trace of Precipitation, MM = Missing Value Source: NWS Daily Summary

Daily Weather History Graph

Daily Weather History Graph

Search for Another Location

Airport:

Trip Planner

Search our weather history database for the weather conditions in past years. The results will help you decide how hot, cold, wet, or windy it might be!

Date:

Astronomy

Feb. 14, 2013 Rise Set
Actual Time 7:17 AM CST 5:47 PM CST
Civil Twilight 6:47 AM CST 6:16 PM CST
Nautical Twilight 6:14 AM CST 6:50 PM CST
Astronomical Twilight 5:40 AM CST 7:23 PM CST
Moon 9:09 AM CST (2/14) 11:02 PM CST (2/14)
Length of Visible Light 11h 28m
Length of Day
10h 29m
Waxing Crescent, 22% of the Moon is Illuminated
Feb 14
Waxing Crescent
Feb 17
First Quarter
Feb 25
Full
Mar 4
Last Quarter
Mar 11
New

Hourly Weather History & Observations

Time (CST) Temp. Windchill Dew Point Humidity Pressure Visibility Wind Dir Wind Speed Gust Speed Precip Events Conditions
12:15 AM 39.2 °F 28.5 °F 28.4 °F 65% 29.63 in 10.0 mi WNW 24.2 mph 28.8 mph N/A   Overcast
12:35 AM 37.4 °F 26.4 °F 28.4 °F 70% 29.63 in 10.0 mi WNW 23.0 mph 27.6 mph N/A   Overcast
12:55 AM 37.4 °F 26.9 °F 28.4 °F 70% 29.64 in 10.0 mi WNW 20.7 mph 26.5 mph N/A   Overcast
1:15 AM 37.4 °F 25.4 °F 28.4 °F 70% 29.65 in 10.0 mi WNW 27.6 mph 32.2 mph N/A   Overcast
1:35 AM 37.4 °F 27.8 °F 26.6 °F 65% 29.66 in 10.0 mi WNW 17.3 mph - N/A   Overcast
1:55 AM 37.4 °F 26.6 °F 28.4 °F 70% 29.67 in 10.0 mi WNW 21.9 mph 26.5 mph N/A   Overcast
2:15 AM 37.4 °F 26.6 °F 28.4 °F 70% 29.68 in 10.0 mi WNW 21.9 mph 26.5 mph N/A   Overcast
2:35 AM 37.4 °F 26.6 °F 28.4 °F 70% 29.70 in 10.0 mi WNW 21.9 mph - N/A   Overcast
2:55 AM 37.4 °F 26.4 °F 28.4 °F 70% 29.71 in 9.0 mi WNW 23.0 mph 29.9 mph N/A   Overcast
3:15 AM 35.6 °F 24.5 °F 26.6 °F 70% 29.72 in 7.0 mi WNW 20.7 mph 26.5 mph N/A   Overcast
3:35 AM 35.6 °F 24.0 °F 26.6 °F 70% 29.72 in 5.0 mi WNW 23.0 mph 27.6 mph N/A   Overcast
3:55 AM 35.6 °F 24.2 °F 26.6 °F 70% 29.73 in 5.0 mi WNW 21.9 mph 26.5 mph N/A   Overcast
4:15 AM 35.6 °F 24.0 °F 26.6 °F 70% 29.75 in 5.0 mi NW 23.0 mph - N/A   Overcast
4:35 AM 35.6 °F 25.2 °F 26.6 °F 70% 29.76 in 6.0 mi WNW 18.4 mph 25.3 mph N/A   Overcast
4:55 AM 35.6 °F 26.2 °F 26.6 °F 70% 29.77 in 6.0 mi NW 15.0 mph - N/A   Overcast
5:15 AM 35.6 °F 25.5 °F 26.6 °F 70% 29.78 in 6.0 mi NW 17.3 mph 20.7 mph N/A   Overcast
5:35 AM 35.6 °F 25.2 °F 26.6 °F 70% 29.79 in 5.0 mi WNW 18.4 mph 26.5 mph N/A   Overcast
5:55 AM 35.6 °F 26.6 °F 26.6 °F 70% 29.80 in 6.0 mi WNW 13.8 mph - N/A   Overcast
6:15 AM 35.6 °F 25.9 °F 26.6 °F 70% 29.81 in 6.0 mi NW 16.1 mph - N/A   Overcast
6:35 AM 35.6 °F 25.9 °F 26.6 °F 70% 29.82 in 7.0 mi WNW 16.1 mph - N/A   Overcast
6:55 AM 35.6 °F 26.2 °F 26.6 °F 70% 29.83 in 7.0 mi NW 15.0 mph - N/A   Overcast
7:15 AM 35.6 °F 27.1 °F 24.8 °F 65% 29.83 in 7.0 mi NW 12.7 mph - N/A   Overcast
7:35 AM 33.8 °F 24.3 °F 24.8 °F 70% 29.85 in 7.0 mi NW 13.8 mph - N/A   Overcast
7:55 AM 33.8 °F 25.8 °F 26.6 °F 75% 29.84 in 7.0 mi NW 10.4 mph - N/A   Overcast
8:15 AM 35.6 °F 27.1 °F 26.6 °F 70% 29.85 in 7.0 mi NW 12.7 mph - N/A   Overcast
8:35 AM 35.6 °F 27.5 °F 24.8 °F 65% 29.85 in 10.0 mi WNW 11.5 mph - N/A   Overcast
8:55 AM 35.6 °F 28.0 °F 24.8 °F 65% 29.86 in 10.0 mi WNW 10.4 mph - N/A   Overcast
9:15 AM 35.6 °F 27.5 °F 24.8 °F 65% 29.86 in 10.0 mi WNW 11.5 mph - N/A   Overcast
9:35 AM 35.6 °F 28.0 °F 24.8 °F 65% 29.86 in 9.0 mi WNW 10.4 mph - N/A   Overcast
9:55 AM 35.6 °F 28.6 °F 24.8 °F 65% 29.87 in 9.0 mi WNW 9.2 mph - N/A   Overcast
10:15 AM 35.6 °F 29.2 °F 24.8 °F 65% 29.87 in 9.0 mi WNW 8.1 mph - N/A   Overcast
10:35 AM 35.6 °F 27.5 °F 24.8 °F 65% 29.89 in 8.0 mi WNW 11.5 mph - N/A   Overcast
10:55 AM 35.6 °F 26.2 °F 24.8 °F 65% 29.89 in 5.0 mi WNW 15.0 mph - N/A   Overcast
11:15 AM 35.6 °F 26.6 °F 24.8 °F 65% 29.90 in 2.0 mi WNW 13.8 mph - N/A   Overcast
11:35 AM 35.6 °F 28.0 °F 26.6 °F 70% 29.91 in 2.5 mi WNW 10.4 mph - N/A   Mostly Cloudy
11:55 AM 35.6 °F 28.0 °F 26.6 °F 70% 29.91 in 2.5 mi NW 10.4 mph 16.1 mph N/A   Overcast
12:15 PM 35.6 °F 27.1 °F 24.8 °F 65% 29.91 in 7.0 mi NW 12.7 mph - N/A   Overcast
12:35 PM 35.6 °F 27.1 °F 21.2 °F 56% 29.92 in 7.0 mi NNW 12.7 mph - N/A   Overcast
12:55 PM 33.8 °F 24.3 °F 23.0 °F 65% 29.92 in 9.0 mi NW 13.8 mph - N/A   Overcast
1:15 PM 33.8 °F 24.3 °F 24.8 °F 70% 29.93 in 5.0 mi NW 13.8 mph - N/A   Overcast
1:35 PM 33.8 °F 25.3 °F 23.0 °F 65% 29.93 in 10.0 mi NW 11.5 mph - N/A   Overcast
1:55 PM 35.6 °F 26.2 °F 24.8 °F 65% 29.93 in 10.0 mi NW 15.0 mph - N/A   Mostly Cloudy
2:15 PM 35.6 °F 25.2 °F 23.0 °F 60% 29.94 in 10.0 mi WNW 18.4 mph - N/A   Mostly Cloudy
2:35 PM 35.6 °F 25.9 °F 23.0 °F 60% 29.95 in 10.0 mi WNW 16.1 mph - N/A   Mostly Cloudy
2:55 PM 35.6 °F 25.2 °F 23.0 °F 60% 29.97 in 10.0 mi NW 18.4 mph 24.2 mph N/A   Mostly Cloudy
3:15 PM 33.8 °F 22.2 °F 21.2 °F 60% 29.98 in 10.0 mi WNW 20.7 mph - N/A   Mostly Cloudy
3:35 PM 33.8 °F 21.9 °F 21.2 °F 60% 29.99 in 10.0 mi WNW 21.9 mph 27.6 mph N/A   Overcast
3:55 PM 33.8 °F 22.2 °F 19.4 °F 56% 30.00 in 10.0 mi WNW 20.7 mph 24.2 mph N/A   Overcast
4:15 PM 33.8 °F 22.2 °F 17.6 °F 52% 30.02 in 10.0 mi WNW 20.7 mph 28.8 mph N/A   Mostly Cloudy
4:35 PM 32.0 °F 19.2 °F 15.8 °F 51% 30.03 in 10.0 mi WNW 23.0 mph - N/A   Scattered Clouds
4:55 PM 30.2 °F 17.8 °F 15.8 °F 55% 30.04 in 10.0 mi WNW 19.6 mph 27.6 mph N/A   Partly Cloudy
5:15 PM 30.2 °F 17.1 °F 15.8 °F 55% 30.06 in 10.0 mi WNW 21.9 mph 29.9 mph N/A   Clear
5:35 PM 28.4 °F 15.1 °F 15.8 °F 59% 30.07 in 10.0 mi WNW 20.7 mph 27.6 mph N/A   Clear
5:55 PM 28.4 °F 16.2 °F 14.0 °F 55% 30.09 in 10.0 mi WNW 17.3 mph 25.3 mph N/A   Clear
6:15 PM 28.4 °F 14.7 °F 12.2 °F 51% 30.10 in 10.0 mi WNW 21.9 mph 27.6 mph N/A   Clear
6:35 PM 26.6 °F 12.4 °F 12.2 °F 55% 30.11 in 10.0 mi WNW 21.9 mph 28.8 mph N/A   Clear
6:55 PM 26.6 °F 13.1 °F 12.2 °F 55% 30.12 in 10.0 mi WNW 19.6 mph 25.3 mph N/A   Clear
7:15 PM 24.8 °F 11.1 °F 12.2 °F 59% 30.14 in 10.0 mi ESE 18.4 mph 27.6 mph N/A   Clear
7:35 PM 24.8 °F 10.7 °F 12.2 °F 59% 30.15 in 10.0 mi ESE 19.6 mph 25.3 mph N/A   Clear
7:55 PM 23.0 °F 8.3 °F 10.4 °F 59% 30.15 in 10.0 mi ESE 19.6 mph - N/A   Clear
8:15 PM 21.2 °F 5.2 °F 8.6 °F 58% 30.16 in 10.0 mi ESE 21.9 mph 25.3 mph N/A   Clear
8:35 PM 21.2 °F 5.6 °F 10.4 °F 63% 30.17 in 10.0 mi ESE 20.7 mph 25.3 mph N/A   Clear
8:55 PM 19.4 °F 3.6 °F 8.6 °F 63% 30.17 in 10.0 mi SE 19.6 mph 24.2 mph N/A   Clear
9:15 PM 19.4 °F 5.0 °F 8.6 °F 63% 30.18 in 10.0 mi SE 16.1 mph - N/A   Clear
9:35 PM 19.4 °F 4.1 °F 8.6 °F 63% 30.18 in 10.0 mi East 18.4 mph - N/A   Clear
9:55 PM 19.4 °F 4.5 °F 6.8 °F 58% 30.19 in 10.0 mi East 17.3 mph - N/A   Clear
10:15 PM 17.6 °F 2.2 °F 6.8 °F 63% 30.20 in 10.0 mi East 17.3 mph - N/A   Clear
10:35 PM 17.6 °F 3.2 °F 6.8 °F 63% 30.20 in 10.0 mi East 15.0 mph 19.6 mph N/A   Clear
10:55 PM 17.6 °F 3.2 °F 5.0 °F 58% 30.21 in 10.0 mi ESE 15.0 mph 20.7 mph N/A   Clear
11:15 PM 17.6 °F 4.3 °F 5.0 °F 58% 30.21 in 10.0 mi East 12.7 mph 19.6 mph N/A   Clear
11:35 PM 17.6 °F 2.2 °F 5.0 °F 58% 30.21 in 10.0 mi SE 17.3 mph - N/A   Clear
11:55 PM 17.6 °F 3.7 °F 5.0 °F 58% 30.21 in 10.0 mi SE 13.8 mph - N/A   Clear